Location: Moscow
(55.7500°N, 37.5830°E)
Time: 09:41:51
(UTC+03:00)

Transit 4A - Pass Details

Date: 30 November 2021
Orbit: 863 x 981 km, 66.8° (Epoch: 23 January)

Event Time Altitude Azimuth Distance (km) Brightness Sun altitude
Exits shadow 07:25:29 - 279° (W) 2,745 9.7 -8.9°
Reaches altitude 10° 07:26:00 10° 275° (W) 2,694 9.7 -8.8°
Maximum altitude 07:27:30 11° 261° (W) 2,634 9.8 -8.6°
Drops below altitude 10° 07:29:00 10° 247° (WSW) 2,705 10.0 -8.4°
Sets 07:33:57 0° 213° (SSW) 3,664 11.0 -7.8°
